Theta_e
317 317 316 316 315 316 316 316 316 316 316 316 315 315 315 315 316 317 317 318 318 319 319 319 320 320 319 316 318 325 336 332 324 322 317 315 313 313 310 312 312 310 312 313 315 315 316
317 316 316 315 315 315 315 315 315 315 315 316 316 315 315 315 315 316 317 317 317 317 318 319 319 320 317 312 328 334 320 322 322 318 316 316 314 316 313 311 310 312 312 313 315 315 315
316 316 315 316 315 315 315 315 315 315 315 315 315 315 314 314 315 316 316 317 317 317 318 319 320 321 317 314 329 328 321 321 322 319 314 318 319 314 315 311 315 314 310 312 312 313 313
316 315 315 316 315 315 314 314 314 315 315 315 315 314 314 314 314 315 316 316 318 318 319 320 321 321 314 319 329 324 323 321 322 320 318 320 321 316 315 316 313 310 310 306 312 313 314
315 316 315 315 314 314 314 314 314 314 314 314 314 313 313 313 314 315 315 315 320 320 320 321 322 320 313 320 321 324 324 318 318 318 319 319 319 315 315 311 308 309 304 305 309 314 313
314 314 315 314 314 313 313 313 313 313 314 314 313 313 313 313 314 314 314 316 321 319 321 323 321 315 316 314 318 324 325 321 315 315 314 314 313 311 312 308 302 305 304 307 307 311 312
314 313 313 313 314 313 312 312 312 312 313 313 313 312 313 313 313 313 317 322 320 318 320 316 317 314 314 319 322 321 322 318 315 312 308 312 308 306 309 311 310 309 307 306 309 313 311
313 313 313 312 312 312 312 311 312 312 312 312 312 313 314 313 313 314 321 320 315 316 309 317 317 318 317 321 313 318 322 313 312 306 310 310 305 311 312 311 309 308 306 306 309 311 311
313 313 313 312 312 311 311 311 311 311 311 311 311 312 314 314 313 317 323 317 321 319 310 312 314 314 316 317 314 315 319 315 311 307 308 307 310 312 310 309 307 307 306 306 307 310 312
313 313 312 312 311 311 311 311 310 311 310 310 310 311 313 310 312 323 319 321 322 321 305 308 308 311 315 316 311 320 320 317 314 308 309 309 313 310 309 307 309 305 310 309 308 307 302
313 313 312 311 311 311 310 310 310 310 309 309 309 311 312 309 323 319 320 322 322 320 298 309 311 320 315 312 314 314 322 317 311 311 312 308 309 309 307 308 311 307 311 310 308 306 306
311 311 312 311 311 310 310 309 309 309 309 308 309 310 311 319 323 320 322 322 320 307 297 308 312 310 309 310 312 316 316 318 317 312 312 311 315 312 311 312 311 312 309 309 309 306 299
311 311 311 310 310 310 309 309 309 309 308 308 308 310 314 322 317 323 323 318 306 299 308 306 307 309 309 308 307 312 311 310 308 304 305 309 308 311 312 308 311 309 307 299 298 298 297
311 311 310 310 309 309 309 308 308 308 307 307 306 306 317 323 323 324 321 312 300 303 303 310 308 309 306 310 309 309 309 307 311 309 305 303 301 308 311 308 307 307 307 300 294 296 300
310 310 310 310 309 309 308 308 308 307 306 305 305 324 326 321 322 323 314 304 303 305 306 304 305 303 304 309 309 309 308 308 311 312 304 304 303 312 312 312 310 307 304 309 303 304 300
309 309 309 309 309 309 308 308 308 307 306 305 316 320 317 317 324 320 311 302 305 308 307 306 301 305 301 305 306 306 307 311 309 313 315 310 303 310 311 312 312 309 311 303 304 295 294
309 308 309 308 308 308 308 308 308 307 305 304 316 314 317 315 322 315 305 307 306 308 308 304 304 303 304 304 305 304 305 309 311 311 314 312 309 307 311 308 306 307 305 307 307 304 297
308 308 308 308 308 308 308 308 308 306 304 307 312 307 314 315 308 314 306 303 300 305 308 306 306 305 304 304 304 304 303 307 310 310 306 311 309 303 305 312 313 311 308 308 301 300 302
307 307 308 308 308 307 307 307 307 306 305 305 305 307 312 314 303 303 302 300 300 301 302 302 302 306 307 304 301 304 306 310 308 308 307 310 306 299 302 307 311 306 308 308 309 311 303
306 306 306 307 308 307 307 307 307 305 305 308 304 300 303 306 303 299 298 297 297 300 299 300 300 303 301 301 304 302 303 307 307 307 309 309 306 303 298 302 306 303 305 306 306 302 302
306 306 306 307 307 308 307 307 307 305 304 308 301 299 298 297 298 298 298 296 295 295 299 299 297 299 297 294 297 299 302 304 307 309 306 308 300 302 303 304 304 304 304 304 303 305 300
306 306 306 306 307 307 307 307 307 305 304 303 298 295 300 300 298 295 293 297 292 293 293 292 292 295 295 292 293 292 296 297 298 304 305 307 299 302 299 303 303 301 303 303 303 304 305
306 306 306 306 306 308 308 308 308 306 306 301 304 304 300 294 295 293 292 291 291 292 293 294 293 291 290 292 295 296 295 296 295 295 295 296 297 298 295 301 300 295 301 303 303 305 304
306 306 306 306 307 307 308 309 308 307 306 305 303 302 296 292 293 291 290 291 291 291 290 292 294 291 294 298 297 296 295 294 294 294 297 293 293 294 293 296 287 300 307 306 304 305 306
306 306 306 306 306 307 308 308 308 308 307 307 305 302 297 292 294 291 291 292 294 294 292 292 293 296 298 295 289 287 288 290 292 293 294 294 292 290 288 289 295 299 303 301 301 302 307
306 306 306 306 306 306 307 308 308 307 307 307 306 306 301 294 292 294 293 294 291 292 293 294 298 300 297 290 287 282 281 286 285 289 296 295 295 290 289 287 284 296 302 305 305 296 308
306 306 305 306 306 306 307 307 307 307 307 306 306 309 301 295 299 297 293 292 296 294 291 293 295 294 297 289 285 283 283 288 283 284 287 289 290 287 287 287 291 300 303 306 293 298 309
305 305 306 306 306 306 306 306 307 306 306 306 307 308 301 296 298 299 299 296 296 294 289 292 292 294 291 287 286 284 284 287 286 288 288 287 287 286 288 286 283 299 301 296 305 308 308
305 305 305 305 305 306 306 306 306 306 306 306 303 308 307 296 299 304 304 304 301 300 295 295 291 290 291 288 290 289 286 288 287 282 291 286 291 289 288 288 294 299 302 306 309 307 307
Wind_Speed
19 20 21 22 22 20 20 20 19 18 18 17 17 17 16 14 12 11 9 8 6 5 6 6 6 5 7 10 7 12 11 9 12 13 14 15 16 16 15 12 9 14 12 9 7 10 10
19 20 21 22 21 20 20 21 21 20 18 17 17 17 16 14 12 11 9 7 5 5 6 6 6 5 10 14 7 15 16 14 12 12 13 14 12 15 13 8 12 13 11 10 14 12 9
21 21 21 20 20 21 21 21 21 20 20 19 18 17 16 15 12 10 9 7 5 5 6 7 8 7 11 9 1 13 15 15 11 12 10 12 8 7 7 11 11 6 11 14 13 11 11
21 21 21 21 21 21 22 22 22 21 20 19 18 17 17 15 12 10 8 7 6 5 7 7 7 10 9 4 5 12 14 13 8 8 11 5 8 13 11 2 6 15 15 15 18 14 9
21 21 21 21 21 22 22 22 22 22 22 21 19 18 16 14 12 9 6 5 3 7 4 8 8 9 11 5 12 14 12 11 10 8 8 1 11 13 12 11 14 13 14 18 12 12 12
21 22 21 21 22 22 23 23 23 23 23 22 21 19 16 13 10 6 4 3 8 8 8 9 10 8 10 13 15 15 13 9 12 11 10 13 10 11 13 14 15 16 17 10 8 13 9
21 22 23 23 23 23 24 24 24 24 24 24 22 20 16 12 8 5 8 6 8 9 13 12 5 8 6 5 11 14 14 11 14 15 16 16 14 14 18 18 18 11 6 9 11 9 12
21 22 23 25 26 25 25 26 27 27 26 26 24 21 16 10 6 5 8 8 8 8 10 18 19 13 3 13 12 17 16 16 14 17 18 12 18 18 16 7 9 14 14 14 11 9 10
20 21 22 24 24 25 26 26 26 27 27 26 24 21 16 10 5 6 11 7 8 7 8 8 12 17 15 13 16 19 21 21 16 19 20 20 11 22 12 12 15 16 17 14 14 15 11
20 21 23 24 24 25 27 27 27 27 28 28 24 20 14 8 2 3 4 4 7 3 8 13 11 8 16 14 15 16 22 20 14 19 21 19 19 10 16 17 17 18 16 15 11 14 14
20 21 23 24 25 26 27 29 29 29 28 29 27 22 14 4 12 5 7 8 8 5 8 8 10 6 6 18 1 21 21 24 21 17 15 19 16 16 18 19 19 16 15 12 16 13 16
22 23 23 25 26 28 28 29 30 30 29 29 26 22 15 6 9 7 9 7 6 9 6 8 7 9 10 19 12 11 18 23 16 20 18 19 10 14 17 17 17 13 14 10 14 14 16
21 22 23 25 26 28 29 30 30 31 31 31 26 20 12 8 8 10 9 8 9 10 5 3 2 4 9 13 19 12 17 22 19 15 20 20 23 14 14 13 12 17 12 12 15 15 16
20 21 22 24 26 28 29 30 32 31 32 32 28 18 6 4 9 9 8 10 10 2 5 7 7 9 14 13 17 19 17 19 24 25 16 18 18 24 19 21 16 16 17 14 18 15 17
20 20 23 24 26 28 29 31 32 33 32 31 29 6 3 8 10 7 9 9 8 10 7 9 14 15 15 15 11 16 22 20 20 23 24 19 20 6 25 20 21 20 21 20 23 20 18
20 21 23 23 25 27 30 31 32 35 35 28 8 5 7 12 7 7 10 13 4 5 9 10 14 11 13 14 15 16 18 14 24 24 22 20 22 22 11 12 19 24 17 14 12 19 20
18 21 22 23 25 27 29 31 32 34 37 33 6 6 8 15 5 8 9 7 5 5 7 8 12 15 15 16 18 17 20 14 11 14 14 15 18 21 22 18 20 17 17 18 15 15 14
18 20 21 23 24 26 28 31 32 32 37 12 7 5 9 11 9 1 5 5 2 7 9 9 9 14 17 17 20 21 21 20 5 8 17 14 17 20 27 26 22 21 24 22 16 23 15
18 20 20 22 24 26 27 30 32 31 22 10 8 4 9 12 5 4 5 10 5 9 10 8 11 10 11 14 12 15 19 20 7 9 6 9 14 17 22 19 20 12 19 20 19 14 19
17 18 20 21 22 24 27 31 33 33 30 9 6 4 5 5 8 11 11 8 8 3 10 8 14 14 16 16 17 15 16 15 0 10 10 6 15 19 18 21 20 23 24 21 24 18 19
17 18 19 20 22 24 26 29 31 33 34 8 6 6 5 8 9 11 9 11 11 11 13 18 10 2 10 11 18 20 20 20 22 8 11 10 20 23 29 29 29 29 22 25 26 24 22
15 17 18 20 20 22 23 25 28 33 38 11 7 7 7 3 7 11 3 13 12 16 16 14 17 17 19 16 19 24 25 20 15 15 13 12 20 20 27 27 27 28 26 30 28 24 26
14 16 17 18 18 18 20 22 26 29 28 9 8 4 7 5 9 9 10 11 14 15 7 17 18 18 19 19 20 22 19 20 20 22 20 19 16 17 24 23 25 23 32 25 25 24 23
14 15 15 15 16 17 19 19 21 22 23 8 8 9 7 6 8 7 10 11 13 12 13 12 13 15 17 19 21 22 22 24 26 26 22 23 21 15 17 19 25 21 20 24 25 25 21
13 13 13 14 15 15 16 17 18 19 21 10 8 8 6 7 5 9 10 11 12 11 8 9 9 12 14 17 18 20 17 22 26 28 28 26 22 17 18 18 17 23 16 16 14 16 16
11 12 12 13 12 14 15 15 15 17 20 12 9 8 8 8 10 8 11 11 12 11 11 13 12 15 18 11 10 19 16 19 12 14 26 22 23 18 13 16 25 23 19 12 13 14 13
11 11 11 11 11 12 13 14 15 16 17 12 5 8 8 7 3 7 10 10 10 11 10 15 19 16 10 9 12 12 14 14 12 16 16 5 9 19 18 17 15 10 4 7 14 1 12
10 11 11 10 11 12 13 13 14 14 15 12 3 5 7 6 9 8 9 11 12 9 8 12 11 9 9 10 6 6 6 7 6 11 14 16 8 6 14 16 18 21 3 7 11 10 11
10 10 11 11 12 12 13 13 14 14 13 12 6 4 3 3 9 15 14 11 10 11 9 6 11 13 6 7 8 6 13 7 15 8 6 5 7 6 3 6 10 13 13 10 9 9 5
Wind_Direction
20 17 15 12 7 1 359 355 354 352 348 345 345 344 342 338 334 331 325 316 294 259 244 237 238 247 248 224 249 126 136 151 184 212 215 209 216 219 228 218 211 233 246 221 254 239 242
19 16 12 8 3 359 356 354 352 348 344 342 341 339 339 337 334 328 322 314 297 253 232 223 219 213 246 252 88 136 170 173 210 216 215 212 219 228 264 236 221 204 246 224 232 233 202
18 13 9 4 0 358 355 352 348 345 343 341 339 336 336 336 332 324 319 308 291 233 216 211 207 238 261 278 111 153 171 191 211 223 208 231 274 203 237 227 236 233 243 229 230 228 235
15 10 5 2 359 356 353 349 347 343 341 340 337 333 332 332 327 321 317 313 284 199 198 200 208 244 272 101 188 178 184 195 199 228 229 199 267 242 243 176 218 234 226 244 199 212 203
12 7 3 0 358 354 350 348 345 342 341 339 336 331 330 328 322 315 310 301 164 171 184 182 215 234 249 127 203 188 194 188 182 197 236 255 250 235 214 229 221 207 231 218 139 198 206
9 7 3 360 356 353 350 348 345 342 340 339 336 332 327 323 315 302 283 251 153 165 209 210 268 246 223 214 185 185 201 203 188 190 190 211 222 227 225 218 224 210 218 188 223 173 215
7 6 3 360 357 353 350 348 345 343 341 341 339 336 327 319 303 256 166 175 200 195 208 242 208 236 130 97 151 189 190 198 193 201 209 203 220 216 222 226 265 308 266 255 198 170 207
7 4 2 360 356 352 351 349 346 344 344 344 341 339 335 325 285 227 256 258 32 340 282 236 240 238 173 173 184 188 184 196 201 209 212 189 230 244 239 238 255 249 250 246 253 213 211
6 2 0 358 355 352 350 349 348 345 344 343 343 341 342 348 131 179 254 32 317 317 265 232 223 219 208 213 227 190 193 209 198 214 211 234 229 215 239 221 237 237 247 243 246 192 218
5 2 359 358 354 352 350 349 349 347 344 342 343 342 343 12 303 161 200 317 301 344 268 154 194 215 211 198 228 225 195 212 224 229 232 226 246 202 246 228 228 249 223 260 262 238 239
6 3 0 357 355 352 351 349 348 348 344 340 339 337 326 270 320 248 348 310 328 237 266 143 129 94 206 207 69 199 185 218 230 221 244 233 227 229 233 231 227 246 276 211 245 243 255
7 4 1 358 356 352 349 348 347 346 343 339 336 328 324 212 239 20 322 305 244 235 240 136 128 190 194 212 215 166 196 223 233 252 232 257 258 239 242 242 243 239 246 237 242 247 242
5 3 2 359 356 352 349 348 347 344 342 337 333 323 306 293 343 330 319 238 237 245 95 115 92 214 227 201 227 182 212 208 221 224 240 227 243 211 247 233 205 222 216 225 220 225 244
6 3 2 360 357 353 351 348 345 344 342 336 327 318 204 310 331 321 288 249 263 354 346 34 295 283 262 244 210 223 222 218 217 244 253 224 226 219 205 233 221 220 220 246 249 243 249
8 5 4 1 358 354 351 349 346 343 343 340 313 202 245 359 326 302 271 249 291 23 14 321 304 258 256 232 256 229 230 237 230 211 244 259 259 217 214 204 233 233 212 237 264 277 279
8 7 4 1 358 355 352 350 348 345 341 340 312 262 70 336 332 275 260 263 309 23 335 297 288 299 286 281 213 234 246 235 240 252 224 235 259 272 212 219 232 232 259 227 233 256 266
9 8 6 3 0 357 353 350 350 347 340 323 262 261 47 339 289 240 255 18 337 25 357 310 297 296 291 290 291 273 278 268 311 266 264 268 251 250 258 202 228 220 241 252 272 267 258
11 10 7 5 2 358 353 350 351 351 341 335 297 274 23 332 263 294 320 16 22 292 308 293 286 275 274 284 281 280 273 275 52 304 280 243 258 251 249 253 215 234 253 224 234 239 250
13 13 10 6 4 360 354 352 351 351 4 314 329 318 43 326 324 23 15 313 276 309 331 315 301 307 318 296 286 261 264 269 55 306 322 315 241 249 251 244 244 233 242 256 264 255 258
16 15 13 10 7 3 358 356 351 346 340 318 308 313 34 79 51 344 354 308 310 5 313 339 304 308 286 276 273 267 271 280 4 304 15 321 268 258 248 246 240 213 232 252 254 253 257
18 16 15 12 11 7 3 357 351 344 340 305 1 68 4 349 6 337 319 312 334 330 4 320 309 259 338 312 312 286 282 289 278 300 263 249 261 256 259 264 273 276 257 229 240 255 248
17 17 17 16 14 10 3 359 353 353 340 39 13 349 342 36 350 328 76 27 334 343 333 312 308 327 332 308 299 301 310 306 304 293 315 292 269 264 265 259 258 259 257 257 267 249 240
19 18 17 17 14 10 4 1 5 357 345 27 4 351 284 95 345 350 22 343 327 327 315 329 321 309 300 302 310 306 305 293 284 291 292 293 288 273 255 257 255 251 247 254 253 255 263
19 17 17 17 16 9 8 13 8 356 356 10 9 320 334 13 1 15 345 334 331 324 313 302 296 309 317 314 301 291 276 264 259 259 258 265 268 280 281 277 251 255 262 262 262 257 261
16 15 17 19 16 8 8 16 9 357 351 335 19 351 348 335 348 7 343 336 312 312 313 314 330 326 327 309 293 278 266 254 242 238 238 231 242 254 252 257 272 272 245 296 260 260 252
13 15 19 17 8 4 11 8 7 2 348 324 59 335 326 311 45 343 321 309 337 327 312 332 323 352 306 293 282 285 286 290 271 280 212 225 225 237 239 231 245 259 281 297 10 293 280
17 18 16 6 358 359 4 4 4 0 347 324 54 360 318 307 351 333 328 337 315 324 315 317 343 310 297 304 301 304 306 346 310 292 274 191 286 226 231 248 253 281 333 320 216 335 5
9 8 3 356 352 357 357 353 352 353 349 335 42 53 337 312 300 314 312 306 318 322 303 321 303 13 318 320 321 333 336 340 293 318 327 304 283 210 256 224 237 1 99 277 7 358 7
7 1 353 349 349 349 346 343 343 342 342 338 322 19 23 263 304 300 277 277 283 308 310 300 295 314 316 321 341 329 314 328 321 320 7 317 348 331 15 334 346 328 339 337 334 337 32